TimeCST,TemperatureF,Dew PointF,Humidity,Sea Level PressureIn,VisibilityMPH,Wind Direction,Wind SpeedMPH,Gust SpeedMPH,PrecipitationIn,Events,Conditions,WindDirDegrees,DateUTC
12:15 AM,43.9,32.2,63,29.96,10.0,SW,5.8,-,N/A,,Clear,230,2013-02-06 06:15:00
12:35 AM,42.1,32.0,67,29.96,10.0,SW,8.1,-,N/A,,Clear,230,2013-02-06 06:35:00
1:15 AM,43.3,31.8,64,29.96,10.0,WSW,8.1,-,N/A,,Clear,250,2013-02-06 07:15:00
1:35 AM,43.7,31.8,63,29.95,10.0,WSW,6.9,-,N/A,,Clear,250,2013-02-06 07:35:00
1:55 AM,41.5,31.5,67,29.95,10.0,NW,6.9,-,N/A,,Clear,310,2013-02-06 07:55:00
2:15 AM,42.1,31.1,65,29.95,10.0,NNW,4.6,-,N/A,,Clear,330,2013-02-06 08:15:00
2:35 AM,39.2,30.2,70,29.95,10.0,Calm,Calm,-,N/A,,Clear,0,2013-02-06 08:35:00
2:55 AM,37.9,30.4,74,29.95,10.0,Calm,Calm,-,N/A,,Clear,0,2013-02-06 08:55:00
3:15 AM,37.8,30.7,76,29.94,10.0,Calm,Calm,-,N/A,,Clear,0,2013-02-06 09:15:00
3:35 AM,38.1,30.6,74,29.94,10.0,Calm,Calm,-,N/A,,Clear,0,2013-02-06 09:35:00
3:55 AM,37.4,29.8,74,29.94,10.0,South,4.6,-,N/A,,Clear,180,2013-02-06 09:55:00
4:15 AM,36.1,29.7,77,29.95,10.0,South,5.8,-,N/A,,Clear,180,2013-02-06 10:15:00
4:35 AM,36.7,30.0,77,29.94,10.0,South,3.5,-,N/A,,Clear,190,2013-02-06 10:35:00
4:55 AM,35.6,28.9,77,29.94,10.0,SE,3.5,-,N/A,,Clear,130,2013-02-06 10:55:00
5:15 AM,35.1,28.4,77,29.93,10.0,Calm,Calm,-,N/A,,Clear,0,2013-02-06 11:15:00
5:35 AM,34.7,28.4,78,29.93,10.0,Calm,Calm,-,N/A,,Clear,0,2013-02-06 11:35:00
5:55 AM,35.8,28.9,76,29.93,10.0,ENE,3.5,-,N/A,,Clear,70,2013-02-06 11:55:00
6:15 AM,33.8,28.0,79,29.95,10.0,East,3.5,-,N/A,,Clear,90,2013-02-06 12:15:00
6:35 AM,34.0,28.8,81,29.95,10.0,Calm,Calm,-,N/A,,Clear,0,2013-02-06 12:35:00
7:15 AM,33.6,28.0,80,29.95,10.0,Calm,Calm,-,N/A,,Clear,0,2013-02-06 13:15:00
7:35 AM,33.6,27.9,79,29.96,10.0,Calm,Calm,-,N/A,,Clear,0,2013-02-06 13:35:00
7:55 AM,33.3,27.5,79,29.96,10.0,Calm,Calm,-,N/A,,Clear,0,2013-02-06 13:55:00
8:35 AM,36.5,29.8,77,29.97,10.0,Calm,Calm,-,N/A,,Clear,0,2013-02-06 14:35:00
8:55 AM,38.7,31.1,74,29.97,10.0,East,3.5,-,N/A,,Clear,100,2013-02-06 14:55:00
9:15 AM,41.7,30.4,64,29.98,10.0,Calm,Calm,-,N/A,,Clear,0,2013-02-06 15:15:00
9:35 AM,43.2,30.4,61,29.98,10.0,Calm,Calm,-,N/A,,Clear,0,2013-02-06 15:35:00
10:35 AM,51.3,31.6,47,29.97,10.0,Calm,Calm,-,N/A,,Clear,0,2013-02-06 16:35:00
11:35 AM,58.3,32.0,37,29.96,10.0,Calm,Calm,-,N/A,,Clear,0,2013-02-06 17:35:00
11:55 AM,61.0,32.0,34,29.95,10.0,Calm,Calm,-,N/A,,Clear,0,2013-02-06 17:55:00
12:15 PM,62.8,32.4,32,29.93,10.0,Calm,Calm,-,N/A,,Clear,0,2013-02-06 18:15:00
12:55 PM,66.7,33.6,29,29.91,10.0,Calm,Calm,-,N/A,,Clear,0,2013-02-06 18:55:00
1:35 PM,72.5,31.5,22,29.88,10.0,Calm,Calm,-,N/A,,Clear,0,2013-02-06 19:35:00
2:15 PM,73.0,32.4,22,29.85,10.0,South,4.6,-,N/A,,Clear,190,2013-02-06 20:15:00
2:35 PM,74.1,32.7,22,29.84,10.0,SW,8.1,-,N/A,,Clear,220,2013-02-06 20:35:00
2:55 PM,75.6,32.4,21,29.84,10.0,WSW,18.4,21.9,N/A,,Clear,250,2013-02-06 20:55:00
3:15 PM,76.6,31.8,19,29.83,10.0,West,13.8,25.3,N/A,,Clear,260,2013-02-06 21:15:00
3:35 PM,76.5,30.9,19,29.82,10.0,West,17.3,27.6,N/A,,Clear,260,2013-02-06 21:35:00
4:15 PM,74.7,31.8,21,29.81,10.0,WSW,17.3,23.0,N/A,,Clear,250,2013-02-06 22:15:00
5:15 PM,73.8,31.6,21,29.82,10.0,West,15.0,-,N/A,,Clear,270,2013-02-06 23:15:00
6:15 PM,68.0,32.0,26,29.83,10.0,West,6.9,-,N/A,,Clear,270,2013-02-07 00:15:00
6:35 PM,66.4,32.0,28,29.83,10.0,West,6.9,-,N/A,,Clear,270,2013-02-07 00:35:00
7:15 PM,64.6,31.6,29,29.84,10.0,West,12.7,-,N/A,,Clear,270,2013-02-07 01:15:00
7:35 PM,65.1,31.1,28,29.86,10.0,West,10.4,-,N/A,,Clear,260,2013-02-07 01:35:00
7:55 PM,59.9,31.1,34,29.86,10.0,West,6.9,-,N/A,,Clear,260,2013-02-07 01:55:00
8:15 PM,58.1,31.1,36,29.86,10.0,WSW,5.8,-,N/A,,Clear,240,2013-02-07 02:15:00
8:35 PM,56.3,31.1,38,29.88,10.0,West,8.1,-,N/A,,Clear,260,2013-02-07 02:35:00
8:55 PM,55.6,30.7,39,29.88,10.0,West,3.5,-,N/A,,Clear,270,2013-02-07 02:55:00
9:15 PM,55.0,31.5,41,29.88,10.0,West,9.2,-,N/A,,Clear,260,2013-02-07 03:15:00
9:35 PM,56.3,31.1,38,29.89,10.0,SW,8.1,-,N/A,,Clear,220,2013-02-07 03:35:00
9:55 PM,55.6,32.0,41,29.89,10.0,WSW,6.9,-,N/A,,Clear,240,2013-02-07 03:55:00
10:15 PM,54.3,32.0,43,29.90,10.0,WSW,4.6,-,N/A,,Clear,250,2013-02-07 04:15:00
10:35 PM,52.9,32.0,45,29.90,10.0,West,3.5,-,N/A,,Clear,280,2013-02-07 04:35:00
10:55 PM,52.2,32.0,46,29.91,10.0,WSW,4.6,-,N/A,,Clear,250,2013-02-07 04:55:00
11:15 PM,49.8,31.5,49,29.91,10.0,WSW,8.1,-,N/A,,Clear,240,2013-02-07 05:15:00
11:35 PM,51.8,31.1,45,29.91,10.0,SW,10.4,-,N/A,,Clear,230,2013-02-07 05:35:00
11:55 PM,52.0,30.4,44,29.91,10.0,WSW,9.2,-,N/A,,Clear,240,2013-02-07 05:55:00